Randolph AFB, TX

12:26 AM CDT on July 21, 2017 (GMT -0500)
Randolph Air Force Base

Weather History for KRND - February, 2013

Change the Weather History Date:

Thursday, February 28, 2013

  Actual Average Record
Temperature  
Mean Temperature 50 °F -  
Max Temperature 62 °F 64 °F 82 °F (2006)
Min Temperature 37 °F 45 °F 32 °F (2015)
Degree Days  
Heating Degree Days 16    
Moisture  
Dew Point 24 °F    
Average Humidity 38    
Maximum Humidity 60    
Minimum Humidity 20    
Precipitation  
Precipitation 0.00 in - - ()
Sea Level Pressure  
Sea Level Pressure 30.25 in    
Wind  
Wind Speed 8 mph (North)    
Max Wind Speed 18 mph    
Max Gust Speed 23 mph    
Visibility 10 miles    
Events      
Averages and records for this station are not official NWS values.
T = Trace of Precipitation, MM = Missing Value Source: NWS Daily Summary

Daily Weather History Graph

Daily Weather History Graph

Search for Another Location

Airport or City:

Trip Planner

Search our weather history database for the weather conditions in past years. The results will help you decide how hot, cold, wet, or windy it might be!

Date:

Astronomy

Feb. 28, 2013 Rise Set
Actual Time 6:59 AM CST 6:32 PM CST
Civil Twilight 6:35 AM CST 6:55 PM CST
Nautical Twilight 6:07 AM CST 7:23 PM CST
Astronomical Twilight 5:40 AM CST 7:51 PM CST
Moon 9:40 PM CST (2/28) 8:27 AM CST (2/28)
Length of Visible Light 12h 20m
Length of Day
11h 32m
Waning Gibbous, 90% of the Moon is Illuminated
Feb 28
Waning Gibbous
Mar 4
Last Quarter
Mar 11
New
Mar 19
First Quarter
Mar 27
Full

Hourly Weather History & Observations

Time (CST) Temp. Windchill Dew Point Humidity Pressure Visibility Wind Dir Wind Speed Gust Speed Precip Events Conditions
12:55 AM 40.3 °F 35.5 °F 21.6 °F 47% 30.22 in 10.0 mi NNW 6.9 mph - N/A   Clear
1:55 AM 43.2 °F 39.7 °F 19.9 °F 40% 30.23 in 10.0 mi North 5.8 mph - N/A   Mostly Cloudy
2:55 AM 43.2 °F 39.7 °F 21.9 °F 43% 30.22 in 10.0 mi North 5.8 mph - N/A   Overcast
3:55 AM 45.0 °F 40.6 °F 23.7 °F 43% 30.24 in 10.0 mi North 8.1 mph - N/A   Overcast
4:55 AM 45.0 °F 43.5 °F 26.4 °F 48% 30.25 in 10.0 mi NNE 3.5 mph - N/A   Overcast
5:55 AM 44.4 °F 42.0 °F 26.8 °F 50% 30.27 in 10.0 mi North 4.6 mph - N/A   Overcast
6:55 AM 44.2 °F 42.7 °F 27.1 °F 51% 30.30 in 10.0 mi NNE 3.5 mph - N/A   Overcast
7:55 AM 45.1 °F 40.3 °F 26.8 °F 49% 30.32 in 10.0 mi North 9.2 mph - N/A   Mostly Cloudy
8:55 AM 46.0 °F 40.6 °F 26.6 °F 47% 30.33 in 10.0 mi North 11.5 mph - N/A   Overcast
9:55 AM 48.7 °F - 27.0 °F 43% 30.33 in 10.0 mi North 11.5 mph - N/A   Mostly Cloudy
10:55 AM 51.4 °F - 26.8 °F 38% 30.33 in 10.0 mi North 12.7 mph 19.6 mph N/A   Mostly Cloudy
11:55 AM 54.5 °F - 26.8 °F 34% 30.30 in 10.0 mi North 18.4 mph 23.0 mph N/A   Mostly Cloudy
12:55 PM 56.8 °F - 24.4 °F 29% 30.27 in 10.0 mi North 11.5 mph - N/A   Mostly Cloudy
1:58 PM 59.2 °F - 22.8 °F 25% 30.22 in 10.0 mi NNE 8.1 mph 18.4 mph N/A   Mostly Cloudy
2:45 PM - - - N/A% - - North 8.1 mph - N/A   Unknown
2:46 PM 59.0 °F - 24.8 °F 27% 30.21 in 10.0 mi North 9.2 mph - N/A   Mostly Cloudy
2:48 PM 59.0 °F - 24.8 °F 27% 30.21 in 10.0 mi North 10.4 mph - N/A   Mostly Cloudy
2:58 PM 59.0 °F - 23.0 °F 25% 30.20 in 10.0 mi NNW 11.5 mph - N/A   Partly Cloudy
3:58 PM 62.4 °F - 20.7 °F 20% 30.20 in 10.0 mi NNW 13.8 mph - N/A   Clear
4:58 PM 61.2 °F - 20.1 °F 21% 30.19 in 10.0 mi North 10.4 mph - N/A   Scattered Clouds
5:58 PM 59.4 °F - 19.8 °F 22% 30.21 in 10.0 mi North 10.4 mph - N/A   Mostly Cloudy
6:58 PM 55.8 °F - 20.7 °F 26% 30.22 in 10.0 mi North 3.5 mph - N/A   Mostly Cloudy
7:58 PM 53.8 °F - 20.8 °F 28% 30.23 in 10.0 mi NNW 3.5 mph - N/A   Clear
8:58 PM 47.7 °F - 22.8 °F 38% 30.25 in 10.0 mi North 3.5 mph - N/A   Clear
9:58 PM 43.5 °F 39.4 °F 23.5 °F 45% 30.25 in 10.0 mi NNW 6.9 mph - N/A   Clear
10:58 PM 39.7 °F 34.3 °F 24.8 °F 55% 30.25 in 10.0 mi NNW 8.1 mph - N/A   Clear
11:55 PM 37.4 °F 31.4 °F 24.8 °F 60% 30.25 in 10.0 mi NW 8.1 mph - N/A   Clear
11:58 PM 38.3 °F 32.5 °F 24.4 °F 57% 30.24 in 10.0 mi NW 8.1 mph - N/A   Clear